BEIDOU-3 M11 (C25)

Last updated on Jan. 19, 2020, 4:38 a.m. UTC

1 43602U 18067A   20018.72871365  .00000021  00000-0  00000+0 0  9999
2 43602  54.7175 260.8474 0006862 352.3746 318.6658  1.86231615  9514
UTC
Height (km)
Latitude
Longitude
Inclination
Orbital Period
UTC large
Height (km)
Speed (km/s)
/
Latitude / Longitude
Inclination (degrees)
Orbital Period (minutes)
Azimuth
Elevation
Range (km)
Doppler Factor
iOS Compass Heading
iOS Angle

Next 30 passes for location: Hong Kong

Rise time Rise Azimuth (degrees) Set time Set Azimuth (degrees) Duration Max altitude (degrees)

No matching passes for this satellites